[[{"header":{"parameterUnit":"m.s-1","parameterCategory":1,"la1":30.2991,"la2":30.254,"lo1":-89.0895,"lo2":-89.0444,"dy":0.0017,"dx":0.0017,"nx":28,"ny":28,"refTime":"2025-08-19T09:00:00:Z","depth":0,"parameterNumber":2,"parameterNumberName":"U-component_of_WINDS"},"data":[0,0,0,0,0,0,0,0,0,0,0,0,0,0,0,0,0,0,0,0,0,0,0,0,0,0,0,0,0,0,0,0,0,0,0,0,0,0,0,0,0,0,0,0,0,0,0,0,0,0,0,0,0,0,0,0,0,0,1.4677,1.4677,0,1.4652,1.4652,1.4651,1.4585,1.4584,1.4583,1.4581,1.4556,1.4557,1.4557,0,0,0,0,0,0,0,0,0,0,0,0,0,1.467,1.467,1.4677,1.4677,1.4676,1.4652,1.4651,1.4651,1.4586,1.4584,1.4582,1.4581,1.4556,1.4557,1.4557,0,0,0,0,0,0,0,0,0,0,0,0,0,1.4662,1.4671,1.4677,1.4641,1.4637,1.4652,1.4651,1.4651,1.4586,1.4584,1.4582,1.458,1.4556,1.4556,1.4557,1.4606,0,0,1.456,1.4561,0,0,0,0,0,0,0,0,1.4662,1.4662,1.4646,1.4643,1.4639,1.4619,1.464,1.4636,1.4586,1.4605,1.4581,1.4579,1.4579,1.4578,1.4578,1.4604,1.4603,1.456,1.4561,1.4561,1.4562,0,0,0,0,0,0,0,1.4663,1.4663,1.4667,1.4646,1.4642,1.4626,1.4623,1.4639,1.4604,1.4604,1.4599,1.4597,1.4577,1.4577,1.4577,1.4603,1.456,1.4561,1.4562,1.4562,1.467,1.4672,0,0,0,0,0,0,1.4669,1.4664,1.4668,1.4666,1.4646,1.4628,1.4624,1.4628,1.4604,1.4598,1.4598,1.4594,1.4576,1.4576,1.4576,1.4632,1.4561,1.4562,1.4563,1.4668,1.4671,1.4673,0,0,0,0,0,0,1.4669,1.467,1.4669,1.4664,1.4662,1.463,1.4635,1.4629,1.4629,1.46,1.4594,1.4605,1.4575,1.4574,1.4599,1.463,1.4563,1.4564,1.4665,1.4669,1.4672,1.4744,0,0,0,0,0,0,1.4669,1.467,1.4687,1.4665,1.4663,1.4692,1.4637,1.463,1.4631,1.4624,1.4605,1.4599,1.4573,1.4598,1.46,1.463,1.4564,1.4662,1.4667,1.4671,1.4738,1.4749,1.4758,0,0,0,0,0,1.4669,1.4708,1.4689,1.4689,1.4684,1.4694,1.4693,1.4662,1.4633,1.4651,1.4633,1.46,1.4626,1.4601,1.4603,1.4633,1.466,1.4666,1.4671,1.4734,1.4747,1.4758,0,0,0,0,0,0,1.4735,1.4704,1.4682,1.4715,1.4708,1.4683,1.4704,1.4676,1.4677,1.4671,1.4632,1.4629,1.4659,1.4649,1.4621,1.468,1.4638,1.4644,1.4686,1.4698,1.4707,1.4709,1.4565,0,0,0,0,0,1.4754,1.4764,1.4737,1.4769,1.4766,1.4736,1.4739,1.4716,1.4707,1.4703,1.4687,1.468,1.4686,1.4691,1.4696,1.4737,1.4732,1.4759,1.4769,1.4777,1.4783,1.4805,1.4817,1.469,1.469,1.469,0,0,1.4792,1.4776,1.4785,1.4782,1.4773,1.4786,1.4734,1.4749,1.4758,1.4706,1.4728,1.4717,1.4706,1.474,1.4753,1.4732,1.4817,1.4784,1.4791,1.4791,1.4812,1.4824,1.4835,1.4694,1.4693,1.4692,0,0,1.4868,1.4857,1.4883,1.4876,1.4864,1.4844,1.4851,1.483,1.482,1.4843,1.4804,1.4815,1.4827,1.4822,1.482,1.4897,1.4868,1.49,1.4952,1.4974,1.4984,1.4993,1.5022,1.5032,1.4905,1.4906,1.4906,0,1.4917,1.4934,1.49,1.4918,1.4918,1.4872,1.4899,1.4894,1.4884,1.4886,1.4862,1.4877,1.4867,1.4899,1.4918,1.4918,1.4926,1.4902,1.4986,1.4994,1.5002,1.5029,1.5039,1.491,1.4909,1.4909,1.4908,0,1.4995,1.5008,1.503,1.5023,1.5026,1.5048,1.5019,1.5026,1.5003,1.4986,1.5011,1.4997,1.4999,1.5005,1.4982,1.5035,1.5022,1.4993,1.4949,1.5018,1.5043,1.5053,1.4916,1.4914,1.4913,1.4912,0,0,1.5111,1.5086,1.5095,1.5091,1.5076,1.5085,1.5107,1.5108,1.5116,1.5112,1.5129,1.5141,1.5115,1.5114,1.509,1.511,1.5174,1.5078,1.5078,1.5097,1.5233,1.5256,1.5268,1.5154,1.5156,1.5158,1.5234,0,1.5183,1.5217,1.5189,1.5229,1.5241,1.5198,1.5217,1.521,1.5196,1.5205,1.5188,1.5198,1.5162,1.5161,1.5179,1.5162,1.5201,1.5156,1.5171,1.5172,1.5176,1.5281,1.5304,1.5377,1.5244,1.5245,1.5246,0,1.5272,1.5272,1.5314,1.5297,1.5301,1.5318,1.5319,1.5328,1.532,1.5308,1.5308,1.528,1.5301,1.526,1.5289,1.5259,1.5264,1.5257,1.5259,1.526,1.5214,1.5285,1.5399,1.5411,1.5261,1.526,1.5259,0,1.5353,1.5364,1.5391,1.5389,1.537,1.5384,1.5377,1.5367,1.5371,1.5372,1.5374,1.5377,1.5379,1.5383,1.5357,1.5329,1.5391,1.5346,1.5382,1.5383,1.5397,1.5396,1.5515,1.5399,1.5399,1.5399,1.5399,0,1.5437,1.5465,1.5427,1.5444,1.5474,1.5441,1.5472,1.546,1.5453,1.5467,1.543,1.5445,1.541,1.5421,1.5401,1.5429,1.543,1.5422,1.5417,1.5426,1.5427,1.5428,1.5423,1.5402,1.5401,1.54,1.54,0,1.5533,1.5509,1.5535,1.5516,1.5512,1.5535,1.5519,1.5534,1.5518,1.5537,1.5539,1.5514,1.5526,1.5501,1.5508,1.5495,1.5535,1.5521,1.5538,1.5534,1.5572,1.5569,1.5695,1.5711,1.5585,1.5587,1.5588,0,1.5588,1.5609,1.5592,1.5599,1.5594,1.5606,1.561,1.5579,1.5585,1.5579,1.5596,1.5604,1.5609,1.563,1.5613,1.5619,1.5606,1.565,1.5606,1.5615,1.5607,1.5607,1.5609,1.5658,1.566,1.5661,1.5662,0,1.569,1.5677,1.5684,1.5688,1.5694,1.5695,1.5694,1.5702,1.567,1.5678,1.569,1.5694,1.5703,1.5712,1.5715,1.5709,1.5681,1.5676,1.5685,1.5694,1.5704,1.57,1.5563,1.5673,1.5672,1.5671,1.5671,1.567,1.5767,1.5784,1.5775,1.5785,1.5781,1.5781,1.5795,1.5781,1.579,1.5795,1.5777,1.5793,1.5787,1.5788,1.5785,1.5797,1.5778,1.579,1.5793,1.5797,1.5804,1.5702,1.5798,1.5797,1.5797,1.5797,1.5797,0,1.5867,1.586,1.5869,1.5869,1.5878,1.5851,1.5849,1.5857,1.5872,1.5868,1.5875,1.5889,1.5899,1.5883,1.5891,1.5904,1.5892,1.5907,1.5906,1.5906,1.582,1.5812,1.5917,1.5917,1.5917,1.5917,1.5917,1.5917,1.592,1.5948,1.5935,1.5961,1.5953,1.5969,1.597,1.5971,1.5968,1.5986,1.5994,1.5984,1.5976,1.5983,1.5991,1.5986,1.5991,1.6011,1.6002,1.5923,1.5911,1.59,1.5892,1.6012,1.6013,1.6086,1.6087,1.6088]},{"header":{"parameterUnit":"m.s-1","parameterCategory":1,"la1":30.2991,"la2":30.254,"lo1":-89.0895,"lo2":-89.0444,"dy":0.0017,"dx":0.0017,"nx":28,"ny":28,"refTime":"2025-08-19T09:00:00:Z","depth":0,"parameterNumber":3,"parameterNumberName":"V-component_of_WINDS"},"data":[0,0,0,0,0,0,0,0,0,0,0,0,0,0,0,0,0,0,0,0,0,0,0,0,0,0,0,0,0,0,0,0,0,0,0,0,0,0,0,0,0,0,0,0,0,0,0,0,0,0,0,0,0,0,0,0,0,0,-1.323,-1.3231,0,-1.3342,-1.3343,-1.3345,-1.3405,-1.3405,-1.3405,-1.3405,-1.3519,-1.3522,-1.3524,0,0,0,0,0,0,0,0,0,0,0,0,0,-1.3066,-1.3068,-1.3229,-1.3231,-1.3232,-1.3342,-1.3343,-1.3345,-1.3405,-1.3405,-1.3405,-1.3405,-1.3518,-1.3521,-1.3525,0,0,0,0,0,0,0,0,0,0,0,0,0,-1.3153,-1.3069,-1.3229,-1.3275,-1.3281,-1.3342,-1.3343,-1.3345,-1.3405,-1.3405,-1.3405,-1.3405,-1.3517,-1.3521,-1.3525,-1.3548,0,0,-1.3538,-1.354,0,0,0,0,0,0,0,0,-1.3148,-1.3159,-1.3267,-1.3272,-1.3278,-1.336,-1.3327,-1.3413,-1.3405,-1.3358,-1.3405,-1.3406,-1.3466,-1.3474,-1.3495,-1.3553,-1.3558,-1.3539,-1.3541,-1.3543,-1.3545,0,0,0,0,0,0,0,-1.3142,-1.3155,-1.3274,-1.3269,-1.3276,-1.329,-1.3303,-1.3344,-1.3409,-1.3362,-1.3366,-1.3379,-1.3469,-1.349,-1.3498,-1.356,-1.3539,-1.3543,-1.3545,-1.3547,-1.3645,-1.3645,0,0,0,0,0,0,-1.3129,-1.3149,-1.327,-1.3277,-1.3213,-1.3293,-1.3307,-1.3333,-1.3409,-1.3421,-1.3379,-1.3381,-1.3483,-1.3493,-1.3502,-1.3535,-1.3543,-1.3547,-1.355,-1.3645,-1.3645,-1.3645,0,0,0,0,0,0,-1.3125,-1.3139,-1.3266,-1.3215,-1.3232,-1.3296,-1.3325,-1.3335,-1.3357,-1.3422,-1.3433,-1.3389,-1.3483,-1.3496,-1.3537,-1.354,-1.3549,-1.3553,-1.3645,-1.3645,-1.3645,-1.36,0,0,0,0,0,0,-1.312,-1.3137,-1.3147,-1.3214,-1.3234,-1.3299,-1.3325,-1.3338,-1.3365,-1.3369,-1.3434,-1.3445,-1.3485,-1.353,-1.3541,-1.3546,-1.3557,-1.3645,-1.3645,-1.3645,-1.3601,-1.3598,-1.3596,0,0,0,0,0,-1.3114,-1.3129,-1.3147,-1.3161,-1.3248,-1.3299,-1.331,-1.3355,-1.3365,-1.3375,-1.3416,-1.3443,-1.3537,-1.3533,-1.3547,-1.3553,-1.3645,-1.3645,-1.3645,-1.3602,-1.3599,-1.3596,0,0,0,0,0,0,-1.3059,-1.3139,-1.3159,-1.3197,-1.3241,-1.3309,-1.3323,-1.335,-1.3391,-1.3394,-1.3447,-1.3462,-1.3497,-1.3529,-1.3523,-1.358,-1.3594,-1.3596,-1.3557,-1.3554,-1.3552,-1.3543,-1.356,0,0,0,0,0,-1.3051,-1.3086,-1.3154,-1.318,-1.3201,-1.3258,-1.3282,-1.3313,-1.3361,-1.3379,-1.3424,-1.3468,-1.3508,-1.3533,-1.3573,-1.3606,-1.3622,-1.3617,-1.3614,-1.3611,-1.3613,-1.3634,-1.3633,-1.3644,-1.3644,-1.3644,0,0,-1.3035,-1.3083,-1.3102,-1.317,-1.3208,-1.3243,-1.3273,-1.3309,-1.3335,-1.3384,-1.3426,-1.346,-1.3514,-1.3551,-1.3569,-1.3578,-1.3613,-1.3611,-1.3609,-1.3612,-1.3634,-1.3633,-1.3632,-1.3644,-1.3644,-1.3644,0,0,-1.3024,-1.3064,-1.3091,-1.3129,-1.3186,-1.3224,-1.323,-1.3295,-1.3319,-1.3362,-1.34,-1.3432,-1.35,-1.3536,-1.3564,-1.3569,-1.3595,-1.358,-1.3565,-1.3585,-1.3584,-1.3584,-1.3586,-1.3586,-1.3581,-1.3581,-1.3581,0,-1.2997,-1.3052,-1.3101,-1.3135,-1.3164,-1.3212,-1.3239,-1.3273,-1.334,-1.3359,-1.3368,-1.3455,-1.3494,-1.3541,-1.3542,-1.3563,-1.3572,-1.3573,-1.358,-1.358,-1.3581,-1.3583,-1.3584,-1.3579,-1.3579,-1.358,-1.358,0,-1.3016,-1.3054,-1.3069,-1.3133,-1.3164,-1.3195,-1.3248,-1.3274,-1.3303,-1.334,-1.3383,-1.3432,-1.3483,-1.3497,-1.3525,-1.3548,-1.3552,-1.357,-1.3586,-1.3577,-1.358,-1.3582,-1.3576,-1.3577,-1.3578,-1.3578,0,0,-1.2973,-1.3065,-1.307,-1.31,-1.3167,-1.3197,-1.323,-1.3282,-1.3303,-1.3347,-1.3377,-1.3433,-1.3451,-1.3482,-1.3515,-1.3532,-1.3534,-1.3548,-1.355,-1.3544,-1.3564,-1.355,-1.355,-1.3552,-1.3552,-1.3553,-1.3559,0,-1.2972,-1.3034,-1.308,-1.3124,-1.316,-1.3206,-1.3235,-1.3279,-1.3314,-1.335,-1.3389,-1.3429,-1.3449,-1.3468,-1.3487,-1.3529,-1.3538,-1.3529,-1.358,-1.3581,-1.3565,-1.3552,-1.3537,-1.3541,-1.3561,-1.3561,-1.3561,0,-1.2979,-1.3023,-1.3071,-1.3136,-1.3153,-1.3178,-1.3229,-1.3262,-1.3314,-1.3339,-1.3374,-1.3408,-1.3445,-1.3458,-1.351,-1.3503,-1.3527,-1.355,-1.3552,-1.3558,-1.357,-1.3558,-1.3543,-1.3544,-1.3564,-1.3564,-1.3564,0,-1.2942,-1.3014,-1.3053,-1.3077,-1.3154,-1.317,-1.3203,-1.3255,-1.3283,-1.3328,-1.3347,-1.3395,-1.3421,-1.3458,-1.3504,-1.3509,-1.3552,-1.3568,-1.3574,-1.3572,-1.358,-1.3579,-1.3569,-1.3595,-1.3595,-1.3595,-1.3595,0,-1.2937,-1.2964,-1.3038,-1.3061,-1.3094,-1.3147,-1.3178,-1.3214,-1.326,-1.3292,-1.3334,-1.3363,-1.3423,-1.3459,-1.3495,-1.3533,-1.3545,-1.3566,-1.3575,-1.3562,-1.356,-1.3578,-1.3579,-1.3595,-1.3595,-1.3595,-1.3595,0,-1.2901,-1.2952,-1.2997,-1.3066,-1.3084,-1.3105,-1.3164,-1.3189,-1.3228,-1.3267,-1.328,-1.334,-1.3385,-1.3435,-1.3496,-1.3521,-1.3557,-1.357,-1.354,-1.3545,-1.3548,-1.3547,-1.355,-1.3553,-1.3576,-1.3576,-1.3575,0,-1.2894,-1.2917,-1.2989,-1.3014,-1.3045,-1.3084,-1.3114,-1.3167,-1.3195,-1.3257,-1.3274,-1.3323,-1.3364,-1.3433,-1.3483,-1.353,-1.3545,-1.3543,-1.3552,-1.3539,-1.3546,-1.3544,-1.3547,-1.354,-1.3539,-1.3539,-1.3539,0,-1.2876,-1.29,-1.2942,-1.2992,-1.3026,-1.3068,-1.3112,-1.3129,-1.3191,-1.3222,-1.3269,-1.3301,-1.3364,-1.3412,-1.3465,-1.3499,-1.3529,-1.3535,-1.3539,-1.3526,-1.3508,-1.3518,-1.3532,-1.3535,-1.3535,-1.3536,-1.3536,-1.3536,-1.2855,-1.2878,-1.2933,-1.2977,-1.3016,-1.3056,-1.3083,-1.3126,-1.3166,-1.3222,-1.3251,-1.3298,-1.335,-1.3426,-1.3459,-1.3496,-1.3506,-1.3511,-1.3513,-1.3513,-1.351,-1.3502,-1.3506,-1.3506,-1.3506,-1.3507,-1.3507,0,-1.284,-1.2877,-1.2918,-1.2979,-1.3014,-1.3041,-1.3091,-1.3118,-1.3159,-1.3206,-1.3246,-1.3301,-1.3347,-1.3401,-1.3451,-1.3471,-1.3486,-1.3482,-1.3481,-1.3489,-1.3498,-1.349,-1.3469,-1.3469,-1.3469,-1.3469,-1.3469,-1.3469,-1.2836,-1.2876,-1.2907,-1.2967,-1.3005,-1.3052,-1.3078,-1.3116,-1.3153,-1.3212,-1.3252,-1.3287,-1.3337,-1.3391,-1.3435,-1.345,-1.3467,-1.3459,-1.3477,-1.3485,-1.3488,-1.3491,-1.3484,-1.3462,-1.3462,-1.3465,-1.3465,-1.3465]}]]